Location: Observatoire de l'Aigle
(47.0607°N, 71.3152°W)
Time: 02:37:09
(UTC-04:00)

Amateur Radio Satellites - All Passes

Search period start: 28 July 2017 02:07
Search period end: 29 July 2017 02:07
Location: Observatoire de l'Aigle, 47.0607°N, 71.3152°W

Satellite Date Start Highest point End Downlink Frequencies (MHz)
Time Altitude Azimuth
Tancredo 1 28 Jul 02:11:10 02:12:51 14° 223° (SW) 02:14:32 437.200
50 SAT 28 Jul 02:14:36 02:14:43 10° 271° (W) 02:14:50 437.505
Gurwin Techsat 1B 28 Jul 02:18:19 02:23:26 44° 98° (E) 02:28:30 435.225
RS-15 28 Jul 02:20:47 02:30:42 32° 257° (WSW) 02:40:16 29.354- 29.394
AO-7 28 Jul 02:28:33 02:31:38 12° 83° (E) 02:34:41 .
ISS 28 Jul 02:33:11 02:35:58 26° 219° (SW) 02:38:44 437.550
CUBESAT XI-V 28 Jul 02:38:05 02:39:00 11° 55° (NE) 02:39:56 437.345
BEESAT 28 Jul 02:55:17 03:00:03 84° 74° (ENE) 03:04:51 436.000
Oscar 19 28 Jul 03:06:11 03:11:10 49° 291° (WNW) 03:16:08 437.125/150
PCSat 28 Jul 03:08:14 03:09:26 11° 101° (E) 03:10:39 145.827
BUGSAT 1 28 Jul 03:10:01 03:12:22 15° 300° (WNW) 03:14:44 437.445
ITUPSAT 1 28 Jul 03:10:46 03:15:32 72° 257° (WSW) 03:20:20 437.325
nSIGHT-1 28 Jul 03:13:29 03:14:51 12° 226° (SW) 03:16:11 .
ITAMSAT 1 28 Jul 03:26:00 03:30:08 23° 93° (E) 03:34:13 435.822/435.867
MOZHAYETS 4 28 Jul 03:27:47 03:32:20 65° 259° (W) 03:36:53
KKS-1 28 Jul 03:46:01 03:49:42 26° 64° (ENE) 03:53:25 437.445
Gurwin Techsat 1B 28 Jul 03:58:39 04:03:12 29° 297° (WNW) 04:07:43 435.225
STARS 28 Jul 04:07:07 04:10:16 19° 61° (ENE) 04:13:25 437.465
CUBESAT XI-V 28 Jul 04:10:57 04:15:31 73° 74° (ENE) 04:20:09 437.345
AO-7 28 Jul 04:17:51 04:26:10 62° 104° (ESE) 04:34:22 .
YUBILEINY 28 Jul 04:29:29 04:37:17 34° 65° (ENE) 04:44:57 435.215
BEESAT 28 Jul 04:36:28 04:38:28 12° 272° (W) 04:40:28 436.000
SO-50 28 Jul 04:37:14 04:38:56 12° 109° (ESE) 04:40:39 436.795
PCSat 28 Jul 04:46:26 04:51:49 70° 120° (ESE) 04:57:14 145.827
ITAMSAT 1 28 Jul 05:04:50 05:09:53 52° 291° (WNW) 05:14:54 435.822/435.867
KKS-1 28 Jul 05:21:54 05:26:05 38° 262° (W) 05:30:18 437.445
CUTE-I 28 Jul 05:39:02 05:40:44 11° 86° (E) 05:42:26 437.470
STARS 28 Jul 05:41:53 05:46:14 53° 259° (W) 05:50:36 437.465
XW-2D 28 Jul 05:43:56 05:44:50 11° 88° (E) 05:45:45 145.860 - 145.880
CUBESAT XI-V 28 Jul 05:51:08 05:53:26 14° 272° (W) 05:55:45 437.345
XW-2B 28 Jul 05:53:13 05:55:07 13° 90° (E) 05:57:01 145.730 - 145.750
DOVE 4 28 Jul 05:57:26 06:02:33 48° 98° (E) 06:07:25 437.250
NUDT-PHONESAT 28 Jul 06:04:52 06:06:43 13° 90° (E) 06:08:35 437.300
XW-2C 28 Jul 06:09:56 06:12:50 21° 93° (E) 06:15:44 145.795 - 145.815
AO-7 28 Jul 06:11:05 06:18:33 38° 305° (NW) 06:25:59 .
SO-50 28 Jul 06:14:09 06:18:41 87° 129° (SE) 06:23:13 436.795
KAITUO 1B 28 Jul 06:23:25 06:26:24 22° 94° (E) 06:29:23 145.475/437.950
YUBILEINY 28 Jul 06:26:03 06:34:41 64° 268° (W) 06:43:13 435.215
PCSat 28 Jul 06:31:11 06:35:43 26° 320° (NW) 06:40:17 145.827
LilacSat-2 28 Jul 06:36:44 06:40:24 44° 99° (E) 06:44:02 437.200
STRAND 1 28 Jul 06:43:02 06:47:58 48° 68° (ENE) 06:52:55 437.568
XW-2F 28 Jul 06:44:26 06:48:06 48° 99° (E) 06:51:45 145.980 - 146.000
XW-2D 28 Jul 07:15:42 07:19:26 66° 286° (WNW) 07:23:11 145.860 - 145.880
CUTE-I 28 Jul 07:16:16 07:21:39 79° 104° (ESE) 07:27:00 437.470
XW-2B 28 Jul 07:25:56 07:29:37 52° 287° (WNW) 07:33:17 145.730 - 145.750
HO-68 28 Jul 07:34:53 07:41:34 40° 97° (E) 07:48:11 435.675
DOVE 4 28 Jul 07:35:35 07:39:55 27° 297° (WNW) 07:44:08 437.250
NUDT-PHONESAT 28 Jul 07:37:20 07:40:54 49° 288° (WNW) 07:44:28 437.300
XW-2C 28 Jul 07:43:42 07:47:05 32° 291° (WNW) 07:50:29 145.795 - 145.815
CUTE 1.7 + AOD 2 28 Jul 07:44:30 07:48:34 42° 98° (E) 07:52:37 437.475
SEEDS 28 Jul 07:50:10 07:53:58 31° 96° (E) 07:57:45 437.485
SO-50 28 Jul 07:56:23 07:59:44 20° 327° (NNW) 08:03:06 436.795
KAITUO 1B 28 Jul 07:57:09 08:00:26 29° 291° (WNW) 08:03:41 145.475/437.950
CUBEBUG 2 28 Jul 08:00:10 08:03:59 32° 96° (E) 08:07:42 437.445
XW-2A 28 Jul 08:01:03 08:04:08 34° 98° (E) 08:07:13 145.665 - 145.685
AO-7 28 Jul 08:06:24 08:08:57 12° 329° (NNW) 08:11:32 .
FO-29 28 Jul 08:07:50 08:14:40 35° 60° (ENE) 08:21:29 435.910
LilacSat-2 28 Jul 08:11:53 08:14:22 17° 296° (WNW) 08:16:51 437.200
XW-2F 28 Jul 08:19:37 08:21:52 15° 297° (WNW) 08:24:08 145.980 - 146.000
PCSat 28 Jul 08:20:35 08:21:09 10° 345° (NNW) 08:21:43 145.827
STRAND 1 28 Jul 08:23:11 08:27:22 25° 267° (W) 08:31:36 437.568
AAUSAT CUBESAT 2 28 Jul 08:23:13 08:27:01 33° 96° (E) 08:30:49 437.432
PRISM 28 Jul 08:23:52 08:25:06 11° 57° (ENE) 08:26:19 437.425
YUBILEINY 28 Jul 08:25:59 08:29:34 13° 290° (WNW) 08:33:09 435.215
TIGRISAT 28 Jul 08:36:07 08:39:12 18° 62° (ENE) 08:42:16 435.000
UWE-3 28 Jul 08:50:34 08:54:45 65° 102° (ESE) 08:58:51 435.000/436.395/437.385
ZACube-1 28 Jul 08:56:24 09:00:21 41° 98° (E) 09:04:16 437.345
CUTE-I 28 Jul 08:57:32 09:01:04 18° 303° (WNW) 09:04:36 437.470
M-CUBED/EXP-1 PRIME 28 Jul 08:57:32 09:00:03 17° 54° (NE) 09:02:41 437.505
Oscar 11 28 Jul 09:16:02 09:20:13 47° 99° (E) 09:24:22 .
CUTE 1.7 + AOD 2 28 Jul 09:20:55 09:24:09 21° 296° (WNW) 09:27:23 437.475
HO-68 28 Jul 09:22:37 09:29:23 47° 297° (WNW) 09:36:07 435.675
SEEDS 28 Jul 09:25:59 09:29:34 27° 293° (WNW) 09:33:09 437.485
UNISAT 6 28 Jul 09:27:44 09:32:15 56° 72° (ENE) 09:36:41 437.425
AO-73 28 Jul 09:34:20 09:38:30 85° 285° (WNW) 09:42:37 145.935
XW-2A 28 Jul 09:34:31 09:36:37 16° 295° (WNW) 09:38:44 145.665 - 145.685
CUBEBUG 2 28 Jul 09:36:57 09:40:30 26° 294° (WNW) 09:43:59 437.445
NO-84 28 Jul 09:41:14 09:43:19 17° 130° (SE) 09:45:29 435.350 FM
FO-29 28 Jul 09:51:30 09:59:12 65° 259° (W) 10:07:01 435.910
PRISM 28 Jul 09:55:35 09:59:41 89° 255° (WSW) 10:03:52 437.425
AAUSAT CUBESAT 2 28 Jul 09:58:54 10:02:21 26° 294° (WNW) 10:05:49 437.432
EO-88 28 Jul 10:02:45 10:05:43 23° 94° (E) 10:08:39 145.990 - 145.960
TIGRISAT 28 Jul 10:10:55 10:15:29 60° 259° (W) 10:19:58 435.000
DELFI C3 28 Jul 10:28:00 10:32:02 74° 103° (ESE) 10:36:02 145.870
UWE-3 28 Jul 10:28:26 10:30:42 14° 300° (WNW) 10:32:57 435.000/436.395/437.385
M-CUBED/EXP-1 PRIME 28 Jul 10:30:15 10:33:59 58° 254° (WSW) 10:38:04 437.505
ZACube-1 28 Jul 10:33:18 10:36:23 20° 296° (WNW) 10:39:27 437.345
DUCHIFAT 1 28 Jul 10:37:44 10:40:28 17° 61° (ENE) 10:43:10 145.980
POLYITAN 1 28 Jul 10:44:57 10:48:21 24° 65° (ENE) 10:51:46 437.675
Oscar 11 28 Jul 10:52:53 10:56:03 20° 297° (WNW) 10:59:12 .
ESTCUBE 1 28 Jul 10:57:13 10:58:28 11° 87° (E) 10:59:42 437.505/2401.250
QB50P2 28 Jul 10:57:42 11:01:32 33° 68° (ENE) 11:05:23 145.880/145.840
AIST 2D 28 Jul 11:03:36 11:07:03 72° 75° (ENE) 11:10:32 435.315
NANOSAT C BR1 28 Jul 11:06:01 11:09:51 34° 68° (ENE) 11:13:42 145.865
UNISAT 6 28 Jul 11:06:11 11:09:16 18° 269° (W) 11:12:20 437.425
EO-79 28 Jul 11:08:15 11:12:14 39° 69° (ENE) 11:16:12 145.935-145.965
HO-68 28 Jul 11:13:01 11:15:25 12° 319° (NW) 11:17:48 435.675
AO-73 28 Jul 11:13:34 11:14:02 10° 303° (WNW) 11:14:29 145.935
NO-84 28 Jul 11:17:20 11:20:22 60° 330° (NNW) 11:23:41 435.350 FM
SO-50 28 Jul 11:23:31 11:24:39 11° 17° (NNE) 11:25:47 436.795
LO-87 28 Jul 11:28:19 11:31:34 31° 97° (E) 11:34:47 145.935 - 145.965
EO-88 28 Jul 11:36:15 11:39:23 27° 291° (WNW) 11:42:30 145.990 - 145.960
FO-29 28 Jul 11:41:56 11:45:38 14° 279° (W) 11:49:22 435.910
AO-85 28 Jul 11:46:59 11:50:37 35° 119° (ESE) 11:54:13 145.980
PCSat 28 Jul 11:48:26 11:52:51 24° 38° (NE) 11:57:14 145.827
BEESAT 3 28 Jul 12:00:16 12:04:09 51° 121° (ESE) 12:08:05 437.485
DELFI C3 28 Jul 12:04:33 12:06:14 12° 300° (WNW) 12:07:55 145.870
Gurwin Techsat 1B 28 Jul 12:05:17 12:08:28 16° 56° (NE) 12:11:40 435.225
DUCHIFAT 1 28 Jul 12:11:32 12:15:42 57° 259° (W) 12:19:54 145.980
POLYITAN 1 28 Jul 12:19:58 12:23:57 38° 262° (W) 12:27:56 437.675
BUGSAT 1 28 Jul 12:25:22 12:29:32 62° 73° (ENE) 12:33:43 437.445
ESTCUBE 1 28 Jul 12:31:20 12:35:54 87° 287° (WNW) 12:40:26 437.505/2401.250
QB50P2 28 Jul 12:33:48 12:37:22 26° 265° (W) 12:40:58 145.880/145.840
NANOSAT C BR1 28 Jul 12:42:04 12:45:36 25° 266° (W) 12:49:10 145.865
EO-79 28 Jul 12:44:46 12:48:07 22° 267° (W) 12:51:28 145.935-145.965
Oscar 19 28 Jul 12:46:57 12:51:51 48° 68° (ENE) 12:56:46 437.125/150
BEESAT 2 28 Jul 12:48:34 12:52:28 56° 122° (ESE) 12:56:28 435.950
NO-84 28 Jul 12:55:40 12:58:21 23° 352° (N) 13:01:13 435.350 FM
DX 1 28 Jul 12:55:55 12:57:55 13° 89° (E) 12:59:55 434.975-435.025
VELOX 1 28 Jul 13:00:50 13:05:07 44° 99° (E) 13:09:22 145.980
LO-87 28 Jul 13:02:08 13:04:49 20° 294° (WNW) 13:07:29 145.935 - 145.965
SO-50 28 Jul 13:02:28 13:06:32 31° 41° (NE) 13:10:36 436.795
SPROUT 28 Jul 13:23:20 13:27:38 90° 107° (ESE) 13:31:53 437.525
AO-85 28 Jul 13:27:35 13:31:02 28° 318° (NW) 13:34:30 145.980
AO-7 28 Jul 13:29:26 13:36:16 29° 50° (NE) 13:43:08 .
50 SAT 28 Jul 13:29:50 13:33:03 36° 98° (E) 13:36:14 437.505
UKube-1 28 Jul 13:29:52 13:33:00 19° 92° (E) 13:36:06 .
PCSat 28 Jul 13:31:24 13:36:51 78° 239° (WSW) 13:42:15 145.827
BEESAT 3 28 Jul 13:38:41 13:41:59 24° 321° (NW) 13:45:19 437.485
Gurwin Techsat 1B 28 Jul 13:42:22 13:47:42 88° 255° (WSW) 13:53:05 435.225
BUGSAT 1 28 Jul 14:03:02 14:05:17 14° 270° (W) 14:07:32 437.445
ESTCUBE 1 28 Jul 14:10:10 14:12:00 12° 303° (WNW) 14:13:49 437.505/2401.250
Oscar 19 28 Jul 14:27:14 14:31:24 25° 267° (W) 14:35:36 437.125/150
BEESAT 2 28 Jul 14:27:18 14:30:32 23° 322° (NW) 14:33:48 435.950
DX 1 28 Jul 14:30:12 14:34:37 73° 286° (WNW) 14:38:58 434.975-435.025
NO-84 28 Jul 14:33:38 14:36:36 26° 13° (NNE) 14:39:48 435.350 FM
RS-15 28 Jul 14:34:03 14:44:53 40° 107° (ESE) 14:55:49 29.354- 29.394
O/OREOS (USA 219) 28 Jul 14:35:54 14:40:11 47° 109° (ESE) 14:44:29 437.305
VELOX 1 28 Jul 14:37:49 14:41:18 23° 297° (WNW) 14:44:47 145.980
SO-50 28 Jul 14:42:48 14:47:07 44° 240° (WSW) 14:51:28 436.795
ITAMSAT 1 28 Jul 14:46:32 14:51:33 49° 68° (ENE) 14:56:35 435.822/435.867
BEESAT 28 Jul 14:53:21 14:56:26 17° 90° (E) 14:59:29 436.000
SPROUT 28 Jul 15:01:25 15:02:51 12° 302° (WNW) 15:04:18 437.525
50 SAT 28 Jul 15:03:16 15:05:31 17° 296° (WNW) 15:07:45 437.505
UKube-1 28 Jul 15:05:06 15:09:16 47° 290° (WNW) 15:13:25 .
ITUPSAT 1 28 Jul 15:08:41 15:12:27 23° 93° (E) 15:16:11 437.325
PCSat 28 Jul 15:17:12 15:19:19 12° 258° (WSW) 15:21:26 145.827
AO-7 28 Jul 15:19:51 15:28:15 81° 252° (WSW) 15:36:42 .
MOZHAYETS 4 28 Jul 15:20:05 15:23:44 23° 93° (E) 15:27:23
Gurwin Techsat 1B 28 Jul 15:26:00 15:28:25 13° 273° (W) 15:30:50 435.225
DOVE 4 28 Jul 15:31:51 15:33:19 11° 53° (NE) 15:34:48 437.250
CUBESAT XI-V 28 Jul 16:05:36 16:08:16 15° 89° (E) 16:10:56 437.345
NO-84 28 Jul 16:10:51 16:14:30 76° 34° (NE) 16:18:27 435.350 FM
O/OREOS (USA 219) 28 Jul 16:16:14 16:19:50 23° 309° (NW) 16:23:27 437.305
HO-68 28 Jul 16:26:04 16:27:22 11° 39° (NE) 16:28:39 435.675
ITAMSAT 1 28 Jul 16:26:58 16:31:15 25° 266° (W) 16:35:34 435.822/435.867
BEESAT 28 Jul 16:29:55 16:34:37 63° 289° (WNW) 16:39:19 436.000
XW-2B 28 Jul 16:38:30 16:39:39 11° 60° (ENE) 16:40:47 145.730 - 145.750
RS-15 28 Jul 16:44:18 16:56:36 75° 312° (NW) 17:09:01 29.354- 29.394
ITUPSAT 1 28 Jul 16:45:56 16:50:29 46° 291° (WNW) 16:55:01 437.325
NUDT-PHONESAT 28 Jul 16:48:23 16:49:12 11° 60° (ENE) 16:50:00 437.300
XW-2C 28 Jul 16:54:36 16:57:02 17° 64° (ENE) 16:59:28 145.795 - 145.815
MOZHAYETS 4 28 Jul 16:56:46 17:01:03 42° 291° (WNW) 17:05:21
CUTE-I 28 Jul 17:02:22 17:06:50 28° 62° (ENE) 17:11:19 437.470
DOVE 4 28 Jul 17:04:57 17:09:55 64° 72° (ENE) 17:15:07 437.250
KAITUO 1B 28 Jul 17:06:47 17:09:14 17° 64° (ENE) 17:11:42 145.475/437.950
KKS-1 28 Jul 17:09:33 17:13:33 31° 96° (E) 17:17:31 437.445
AO-7 28 Jul 17:16:47 17:22:16 19° 272° (W) 17:27:48 .
LilacSat-2 28 Jul 17:21:25 17:24:49 33° 70° (ENE) 17:28:14 437.200
XW-2F 28 Jul 17:28:04 17:31:28 35° 70° (ENE) 17:34:53 145.980 - 146.000
STARS 28 Jul 17:28:36 17:32:01 22° 93° (E) 17:35:24 437.465
YUBILEINY 28 Jul 17:34:58 17:42:32 34° 83° (E) 17:50:05 435.215
CUBESAT XI-V 28 Jul 17:41:27 17:46:07 69° 286° (WNW) 17:50:47 437.345
NO-84 28 Jul 17:48:51 17:51:42 20° 228° (SW) 17:54:42 435.350 FM
XW-2D 28 Jul 17:59:20 18:03:05 89° 49° (NE) 18:06:51 145.860 - 145.880
HO-68 28 Jul 18:06:38 18:13:14 42° 61° (ENE) 18:19:51 435.675
XW-2B 28 Jul 18:09:33 18:13:17 72° 260° (W) 18:17:02 145.730 - 145.750
UWE-3 28 Jul 18:17:55 18:18:33 10° 57° (ENE) 18:19:11 435.000/436.395/437.385
NUDT-PHONESAT 28 Jul 18:18:52 18:22:32 73° 258° (WSW) 18:26:13 437.300
XW-2C 28 Jul 18:27:20 18:30:55 43° 261° (W) 18:34:31 145.795 - 145.815
AO-85 28 Jul 18:34:53 18:37:30 16° 33° (NNE) 18:40:11 145.980
XW-2A 28 Jul 18:35:29 18:38:00 20° 67° (ENE) 18:40:32 145.665 - 145.685
BEESAT 3 28 Jul 18:37:30 18:40:01 16° 32° (NNE) 18:42:30 437.485
KAITUO 1B 28 Jul 18:39:28 18:42:57 40° 262° (W) 18:46:28 145.475/437.950
CUTE 1.7 + AOD 2 28 Jul 18:39:47 18:43:45 43° 71° (ENE) 18:47:45 437.475
Tancredo 1 28 Jul 18:40:45 18:43:02 21° 140° (SE) 18:45:19 437.200
CUTE-I 28 Jul 18:41:26 18:46:37 49° 260° (W) 18:51:51 437.470
DOVE 4 28 Jul 18:44:30 18:48:04 19° 272° (W) 18:51:44 437.250
SEEDS 28 Jul 18:44:35 18:48:16 31° 68° (ENE) 18:51:58 437.485
KKS-1 28 Jul 18:46:08 18:50:04 30° 294° (WNW) 18:53:57 437.445
STRAND 1 28 Jul 18:52:20 18:54:26 12° 87° (E) 18:56:32 437.568
LilacSat-2 28 Jul 18:56:20 18:59:11 20° 267° (W) 19:02:02 437.200
AO-73 28 Jul 18:58:49 19:00:50 13° 60° (ENE) 19:02:51 145.935
RS-15 28 Jul 19:00:17 19:11:32 38° 341° (NNW) 19:22:39 29.354- 29.394
CUBEBUG 2 28 Jul 19:00:25 19:04:46 41° 70° (ENE) 19:09:02 437.445
XW-2F 28 Jul 19:03:01 19:05:43 19° 267° (W) 19:08:25 145.980 - 146.000
STARS 28 Jul 19:04:22 19:08:32 42° 291° (WNW) 19:12:40 437.465
ISS 28 Jul 19:15:11 19:17:31 18° 138° (SE) 19:19:52 437.550
AAUSAT CUBESAT 2 28 Jul 19:16:02 19:19:41 32° 68° (ENE) 19:23:23 437.432
CUBESAT XI-V 28 Jul 19:21:57 19:22:37 10° 305° (NW) 19:23:18 437.345
BEESAT 2 28 Jul 19:26:24 19:29:08 17° 33° (NNE) 19:31:51 435.950
YUBILEINY 28 Jul 19:30:04 19:38:48 62° 284° (WNW) 19:47:34 435.215
UWE-3 28 Jul 19:49:45 19:54:16 76° 75° (ENE) 19:58:41 435.000/436.395/437.385
nSIGHT-1 28 Jul 19:52:41 19:55:42 37° 145° (SE) 19:58:44 .
HO-68 28 Jul 19:54:04 20:00:54 46° 261° (W) 20:07:47 435.675
ZACube-1 28 Jul 19:54:35 19:58:48 48° 71° (ENE) 20:02:57 437.345
XW-2A 28 Jul 20:07:41 20:10:36 27° 264° (W) 20:13:32 145.665 - 145.685
Oscar 11 28 Jul 20:13:22 20:17:32 51° 72° (ENE) 20:21:44 .
BEESAT 3 28 Jul 20:14:12 20:18:15 81° 54° (NE) 20:22:12 437.485
AO-85 28 Jul 20:14:19 20:18:30 80° 52° (NE) 20:22:57 145.980
Tancredo 1 28 Jul 20:15:15 20:18:10 67° 338° (NNW) 20:21:07 437.200
CUTE 1.7 + AOD 2 28 Jul 20:16:44 20:19:47 19° 268° (W) 20:22:52 437.475
SEEDS 28 Jul 20:20:27 20:23:58 26° 266° (W) 20:27:30 437.485
STRAND 1 28 Jul 20:29:12 20:34:21 89° 107° (ESE) 20:39:27 437.568
AO-73 28 Jul 20:32:08 20:36:31 78° 257° (WSW) 20:40:48 145.935
CUBEBUG 2 28 Jul 20:37:44 20:41:30 24° 267° (W) 20:45:14 437.445
EO-88 28 Jul 20:43:52 20:46:16 17° 64° (ENE) 20:48:40 145.990 - 145.960
ISS 28 Jul 20:50:24 20:53:40 83° 335° (NNW) 20:56:56 437.550
AAUSAT CUBESAT 2 28 Jul 20:51:44 20:55:10 25° 266° (W) 20:58:38 437.432
FO-29 28 Jul 21:00:17 21:05:00 19° 84° (E) 21:09:21 435.910
BEESAT 2 28 Jul 21:03:23 21:07:28 89° 20° (NNE) 21:11:31 435.950
DELFI C3 28 Jul 21:15:48 21:19:41 61° 74° (ENE) 21:23:38 145.870
RS-15 28 Jul 21:17:08 21:28:17 37° 16° (NNE) 21:39:03 29.354- 29.394
nSIGHT-1 28 Jul 21:28:53 21:32:03 50° 343° (NNW) 21:35:14 .
UWE-3 28 Jul 21:29:14 21:31:12 13° 272° (W) 21:33:09 435.000/436.395/437.385
ZACube-1 28 Jul 21:32:14 21:35:19 19° 268° (W) 21:38:23 437.345
YUBILEINY 28 Jul 21:32:53 21:37:47 16° 309° (NW) 21:42:42 435.215
PRISM 28 Jul 21:36:56 21:37:13 10° 88° (E) 21:37:30 437.425
Oscar 11 28 Jul 21:51:09 21:53:59 17° 269° (W) 21:56:50 .
Tancredo 1 28 Jul 21:51:11 21:53:52 31° 358° (N) 21:56:34 437.200
BEESAT 3 28 Jul 21:53:46 21:55:11 12° 251° (WSW) 21:56:35 437.485
AO-85 28 Jul 21:56:16 21:58:24 14° 249° (WSW) 22:00:36 145.980
ESTCUBE 1 28 Jul 21:58:57 22:01:40 16° 60° (ENE) 22:04:24 437.505/2401.250
TIGRISAT 28 Jul 21:59:58 22:03:18 22° 93° (E) 22:06:36 435.000
LO-87 28 Jul 22:07:22 22:10:13 22° 66° (ENE) 22:13:04 145.935 - 145.965
STRAND 1 28 Jul 22:09:57 22:12:49 15° 304° (NW) 22:15:42 437.568
EO-88 28 Jul 22:16:13 22:19:39 39° 262° (W) 22:23:06 145.990 - 145.960
ISS 28 Jul 22:27:22 22:30:25 36° 355° (N) 22:33:28 437.550
BEESAT 2 28 Jul 22:43:36 22:44:33 11° 252° (WSW) 22:45:29 435.950
FO-29 28 Jul 22:43:57 22:51:06 84° 287° (WNW) 22:57:20 435.910
SPROUT 28 Jul 22:46:14 22:48:05 13° 58° (ENE) 22:49:55 437.525
UNISAT 6 28 Jul 22:52:51 22:57:12 82° 102° (ESE) 23:01:28 437.425
DELFI C3 28 Jul 22:53:07 22:54:52 13° 271° (W) 22:56:38 145.870
O/OREOS (USA 219) 28 Jul 23:03:56 23:07:27 22° 51° (NE) 23:10:57 437.305
nSIGHT-1 28 Jul 23:05:51 23:08:52 35° 3° (N) 23:11:52 .
PRISM 28 Jul 23:08:52 23:13:04 84° 282° (WNW) 23:17:14 437.425
Tancredo 1 28 Jul 23:26:45 23:29:37 48° 17° (NNE) 23:32:30 437.200
RS-15 28 Jul 23:31:06 23:43:22 71° 47° (NE) 23:54:58 29.354- 29.394
ESTCUBE 1 28 Jul 23:33:30 23:37:57 68° 257° (WSW) 23:42:27 437.505/2401.250
TIGRISAT 28 Jul 23:36:08 23:40:10 39° 291° (WNW) 23:44:07 435.000
M-CUBED/EXP-1 PRIME 28 Jul 23:39:20 23:43:57 64° 106° (ESE) 23:48:35 437.505
LO-87 28 Jul 23:40:16 23:43:30 29° 264° (W) 23:46:44 145.935 - 145.965
DUCHIFAT 1 28 Jul 23:53:12 23:56:04 18° 91° (E) 23:58:54 145.980
DX 1 28 Jul 23:53:54 23:56:51 18° 61° (ENE) 23:59:47 434.975-435.025
AIST 2D 28 Jul 23:58:35 00:02:03 57° 100° (E) 00:05:30 435.315
VELOX 1 29 Jul 00:00:33 00:04:53 56° 71° (ENE) 00:09:16 145.980
POLYITAN 1 29 Jul 00:01:39 00:05:15 27° 95° (E) 00:08:48 437.675
ISS 29 Jul 00:04:09 00:07:19 47° 15° (NNE) 00:10:29 437.550
50 SAT 29 Jul 00:04:15 00:06:56 22° 67° (ENE) 00:09:39 437.505
QB50P2 29 Jul 00:14:44 00:18:43 39° 98° (E) 00:22:39 145.880/145.840
SPROUT 29 Jul 00:19:02 00:23:21 83° 257° (WSW) 00:27:40 437.525
NANOSAT C BR1 29 Jul 00:22:25 00:26:22 39° 98° (E) 00:30:17 145.865
EO-79 29 Jul 00:25:09 00:29:14 46° 100° (E) 00:33:16 145.935-145.965
UKube-1 29 Jul 00:26:57 00:30:27 25° 64° (ENE) 00:34:00 .
FO-29 29 Jul 00:30:12 00:34:59 20° 309° (NW) 00:39:27 435.910
UNISAT 6 29 Jul 00:31:26 00:33:16 13° 302° (WNW) 00:35:06 437.425
nSIGHT-1 29 Jul 00:42:20 00:45:34 74° 23° (NNE) 00:48:48 .
O/OREOS (USA 219) 29 Jul 00:42:47 00:47:09 52° 250° (WSW) 00:51:31 437.305
PRISM 29 Jul 00:46:45 00:47:38 11° 303° (WNW) 00:48:29 437.425
Oscar 19 29 Jul 00:57:03 00:59:23 13° 87° (E) 01:01:42 437.125/150
Tancredo 1 29 Jul 01:02:15 01:04:56 33° 216° (SW) 01:07:38 437.200
M-CUBED/EXP-1 PRIME 29 Jul 01:14:36 01:17:56 20° 304° (NW) 01:21:16 437.505
DUCHIFAT 1 29 Jul 01:27:58 01:31:59 47° 289° (WNW) 01:35:59 145.980
DX 1 29 Jul 01:28:19 01:32:36 57° 259° (W) 01:36:57 434.975-435.025
AIST 2D 29 Jul 01:33:29 01:34:48 12° 298° (WNW) 01:36:08 435.315
50 SAT 29 Jul 01:36:40 01:39:33 25° 264° (W) 01:42:28 437.505
POLYITAN 1 29 Jul 01:37:19 01:41:02 31° 293° (WNW) 01:44:45 437.675
VELOX 1 29 Jul 01:38:49 01:41:42 17° 269° (W) 01:44:36 145.980
BUGSAT 1 29 Jul 01:39:15 01:43:21 70° 102° (ESE) 01:47:22 437.445
ISS 29 Jul 01:40:40 01:43:48 43° 214° (SSW) 01:46:54 437.550
QB50P2 29 Jul 01:51:00 01:54:17 22° 296° (WNW) 01:57:32 145.880/145.840
Gurwin Techsat 1B 29 Jul 01:55:52 02:00:28 29° 94° (E) 02:05:02 435.225
NANOSAT C BR1 29 Jul 01:58:36 02:01:52 22° 296° (WNW) 02:05:06 145.865
